Wind_Speed
29 28 25 23 23 22 22 22 21 18 15 14 14 14 14 15 15 14 13 12 12 12 11 10 9 8 7 6 5 4 4 5 5 5 5 5 5 6 6 7 8 8 9 10
30 27 24 26 26 25 25 24 22 20 16 15 15 16 17 16 15 15 15 13 13 12 12 11 10 9 8 6 5 5 6 6 5 6 6 6 6 6 6 6 8 9 9 10
29 25 27 28 27 27 26 25 23 20 18 18 18 18 18 17 16 16 15 14 13 12 11 11 11 11 10 7 6 6 7 7 7 7 8 7 7 7 7 7 8 9 9 10
30 29 29 29 28 27 26 25 25 23 22 22 22 21 19 19 18 17 16 15 14 12 13 12 12 13 12 10 8 7 7 8 8 8 8 8 8 8 7 7 8 9 10 11
29 28 29 28 26 26 25 26 27 26 25 24 23 23 20 20 20 18 17 16 16 13 14 14 13 13 12 11 9 9 9 9 9 9 9 9 9 8 8 8 9 9 10 11
29 30 31 28 26 26 26 27 28 28 27 26 24 24 21 20 20 19 18 18 16 16 16 15 14 14 13 11 10 10 9 10 10 10 9 9 9 9 9 9 9 10 10 11
30 31 30 29 29 28 29 29 29 30 29 26 23 26 22 19 20 19 18 18 18 17 16 15 14 14 13 12 11 11 11 11 11 11 10 9 10 9 10 11 10 10 11 11
30 30 30 29 29 28 29 29 28 28 26 23 23 25 21 19 19 19 17 17 17 16 15 14 14 13 13 12 12 12 12 12 12 12 12 11 10 10 10 11 11 10 11 12
29 28 28 28 28 28 29 28 26 27 26 25 24 22 19 18 18 17 16 16 15 14 14 12 13 13 13 13 13 12 12 12 11 11 12 11 10 10 11 11 11 11 12 13
28 28 28 27 29 29 28 26 28 28 27 26 23 21 18 17 16 16 15 15 15 14 13 13 12 11 13 13 12 12 12 11 12 12 12 12 11 10 10 11 12 12 13 13
28 28 28 30 30 28 28 28 29 28 28 27 24 21 19 17 16 14 13 15 15 15 14 12 11 11 12 12 12 11 12 12 12 12 13 12 12 11 11 11 13 14 14 14
28 29 29 30 28 26 26 27 28 29 28 26 25 21 20 18 15 14 13 13 13 14 14 13 11 10 12 12 11 11 12 12 12 13 13 12 12 12 12 12 13 14 14 15
29 30 30 30 30 28 28 27 28 28 28 28 27 23 21 20 18 16 15 14 15 15 14 13 11 10 12 12 11 11 12 12 12 12 12 12 13 13 13 13 12 12 13 14
30 30 30 29 28 27 27 27 27 28 30 29 28 25 23 21 19 17 15 14 13 12 12 11 10 10 11 10 10 10 11 11 12 12 12 12 13 12 12 12 12 12 13 13
31 31 29 29 28 28 27 26 27 29 29 29 28 26 24 22 20 17 16 14 12 11 9 9 9 10 10 11 11 11 11 11 11 11 11 11 11 12 12 12 12 12 12 13
32 32 30 29 29 29 28 27 28 29 29 30 29 28 24 22 20 19 18 14 12 11 9 9 10 10 11 10 10 11 11 11 12 11 11 11 12 12 12 12 12 12 13 13
33 33 32 31 30 29 28 27 28 29 29 30 29 26 24 22 21 20 18 15 12 11 11 11 11 11 10 11 11 11 12 12 12 11 11 11 11 11 12 12 12 13 13 14
33 33 32 32 32 33 29 28 28 29 29 30 28 27 26 24 22 21 19 17 15 13 13 12 12 11 11 12 11 12 12 12 12 12 11 11 12 12 12 12 12 12 13 14
34 34 34 33 33 32 31 31 29 29 30 29 28 28 27 25 24 23 22 20 17 15 14 13 13 13 13 13 13 13 12 12 13 13 12 12 12 12 12 12 13 12 13 13
34 35 35 35 35 35 32 32 31 30 30 30 29 29 28 25 24 22 21 20 19 18 17 16 15 15 15 15 14 13 13 13 13 12 12 12 12 13 13 13 14 14 14 14
36 36 36 36 37 36 34 33 34 34 31 29 28 28 29 27 25 24 24 23 20 19 18 17 17 17 16 15 15 14 14 13 13 13 14 14 14 14 14 15 15 15 15 15
36 36 36 37 37 36 34 34 35 33 30 29 29 28 28 26 26 24 23 23 22 20 19 18 18 17 17 16 16 16 15 15 15 15 15 15 15 15 15 16 15 15 16 16
36 37 36 36 36 33 33 33 34 33 31 30 29 28 27 26 26 24 23 23 23 21 21 20 19 19 18 17 17 17 16 16 16 16 16 16 16 16 16 15 15 15 16 16
34 35 34 34 35 33 31 31 32 30 29 28 29 28 26 24 25 24 23 22 21 20 21 21 20 20 19 18 18 17 17 17 17 16 16 17 16 16 15 15 16 16 16 17
33 32 32 32 32 31 29 29 28 28 27 25 26 25 23 23 23 23 22 20 20 20 20 21 21 21 22 20 19 18 19 19 18 17 17 17 16 16 16 16 16 17 17 17
33 32 31 30 30 30 28 28 26 25 25 24 23 21 21 20 20 20 20 20 19 20 20 19 19 20 19 19 18 18 19 19 19 19 19 18 17 17 16 17 17 17 17 17
Wind_Direction
230 230 230 231 229 225 225 223 220 220 224 233 244 253 261 268 276 281 290 289 294 297 298 297 298 298 297 299 306 306 306 309 310 303 295 279 265 257 252 246 244 238 235 237
230 230 228 227 226 224 224 224 222 221 225 234 246 254 258 265 272 279 286 287 289 290 290 295 300 298 295 293 289 293 290 291 295 295 295 285 270 263 254 248 247 245 238 236
230 226 225 225 225 225 223 223 223 223 226 236 246 250 254 259 266 269 275 280 283 285 286 291 291 289 285 278 279 280 277 282 289 290 288 290 279 271 257 249 249 249 242 239
224 222 223 223 224 225 224 222 222 223 226 232 240 248 252 256 260 263 272 278 278 281 280 284 284 281 279 272 273 278 270 277 287 287 285 286 288 280 261 252 247 247 248 247
223 222 225 225 224 226 223 220 222 224 228 231 236 245 245 251 255 262 267 275 277 278 280 281 280 278 274 271 271 279 270 274 283 285 282 282 282 274 266 256 252 249 248 247
219 219 222 221 221 224 221 219 222 225 229 231 236 245 247 247 254 259 265 270 279 279 279 274 274 275 272 267 263 269 270 273 280 282 284 281 280 273 268 265 259 248 247 249
219 219 221 219 219 220 219 219 222 226 229 232 234 242 246 244 249 257 265 268 273 277 275 272 267 266 264 260 261 266 267 270 277 282 286 283 281 274 269 267 262 252 250 250
219 219 221 221 221 221 222 222 224 228 230 230 232 240 244 243 246 251 260 265 269 272 275 274 267 261 256 257 259 261 267 270 275 282 287 283 277 273 268 262 258 254 253 253
219 217 219 221 221 220 220 222 224 227 228 229 231 239 242 239 241 246 256 260 263 269 274 273 266 262 254 255 257 261 266 271 276 283 284 281 274 270 264 260 256 254 257 256
216 214 214 215 218 217 218 217 219 222 224 228 231 236 240 242 242 243 252 260 261 262 263 267 264 260 253 249 252 258 264 270 275 279 279 275 274 271 266 259 256 255 259 256
211 212 210 211 213 212 212 213 217 221 223 226 228 234 239 244 247 251 256 257 257 260 265 264 262 264 258 258 255 258 263 268 271 275 278 275 270 267 267 262 260 259 257 255
207 210 209 211 211 210 213 216 218 221 222 225 228 233 237 241 250 254 260 263 260 262 264 263 261 263 257 257 256 261 265 270 273 275 276 272 271 269 268 266 267 262 258 259
206 208 206 207 208 209 211 213 217 222 223 223 227 232 236 241 245 255 260 267 269 267 265 262 256 257 257 257 259 264 266 271 274 277 277 271 269 271 268 268 267 264 263 264
208 210 209 208 209 211 212 215 217 220 222 223 226 232 235 240 244 251 256 262 266 263 261 254 251 255 258 261 264 269 272 276 278 278 278 273 270 271 270 267 265 263 263 264
209 209 209 206 207 209 213 215 217 220 223 225 226 231 236 241 245 250 255 260 261 257 254 251 257 260 265 269 271 272 274 279 279 280 280 276 272 272 271 266 260 263 266 266
210 208 208 207 208 211 214 213 215 219 222 224 227 230 235 241 246 249 251 254 258 261 260 261 263 269 275 279 279 276 278 279 280 280 280 277 272 273 270 265 262 265 267 269
212 210 209 208 208 213 217 215 216 219 222 223 226 228 232 241 247 247 248 253 257 259 262 264 265 269 277 279 280 280 279 279 280 278 277 278 276 274 271 269 267 266 269 273
214 212 212 212 210 215 217 218 219 220 221 223 226 228 232 237 242 245 249 251 252 257 260 262 264 268 273 278 282 284 279 278 281 278 277 278 275 274 274 274 272 272 272 273
216 216 215 213 214 217 218 218 219 219 218 222 225 228 233 237 240 244 248 250 254 257 257 258 261 266 272 276 281 283 281 282 283 280 276 279 277 275 274 276 273 273 276 277
216 215 216 217 217 218 219 220 222 222 222 225 229 231 235 238 241 244 246 249 254 256 256 259 263 267 271 274 277 278 279 280 282 280 279 282 281 278 276 275 275 276 279 280
215 216 218 219 220 221 221 221 223 225 227 229 231 234 234 237 240 244 247 251 255 256 257 260 262 264 268 271 274 275 277 278 277 280 282 284 287 283 281 280 278 278 278 279
214 215 216 218 221 221 221 222 223 226 228 231 233 237 235 235 239 245 248 252 254 253 257 261 263 263 266 268 270 272 273 275 276 279 282 285 285 285 283 282 279 278 278 279
214 216 217 219 221 222 223 225 227 228 231 233 234 238 236 235 239 244 246 246 247 251 256 259 263 265 266 267 267 269 270 272 275 279 282 283 284 287 284 283 281 279 278 279
214 216 219 219 220 221 222 223 226 229 231 230 232 237 234 239 241 245 249 247 246 249 255 258 260 263 265 265 266 267 269 271 274 278 283 286 286 288 285 284 280 279 281 282
216 217 217 219 219 219 221 224 228 229 230 231 231 231 233 237 239 245 246 245 246 250 253 257 258 259 262 264 266 268 269 270 273 277 282 286 285 285 285 285 284 281 281 281
217 219 220 222 222 224 224 226 229 232 232 232 229 226 230 235 240 244 244 246 248 251 256 257 257 257 258 262 266 268 269 272 275 277 280 284 283 282 283 284 284 284 284 285
Height
5865 5870 5874 5878 5881 5884 5885 5888 5890 5892 5892 5893 5894 5895 5896 5896 5896 5897 5898 5898 5899 5899 5899 5899 5898 5897 5896 5896 5896 5896 5896 5895 5895 5895 5894 5894 5894 5894 5894 5895 5895 5896 5897 5898
5860 5865 5870 5871 5874 5877 5880 5883 5886 5888 5888 5889 5891 5892 5892 5892 5893 5894 5895 5896 5896 5897 5897 5897 5896 5896 5895 5895 5895 5894 5894 5894 5893 5893 5892 5892 5892 5892 5892 5892 5893 5894 5895 5895
5855 5862 5862 5865 5868 5872 5875 5879 5882 5883 5884 5886 5887 5889 5889 5890 5890 5891 5892 5893 5894 5895 5895 5895 5894 5894 5894 5893 5893 5892 5892 5892 5891 5891 5890 5890 5890 5890 5890 5890 5890 5891 5892 5893
5848 5853 5855 5859 5863 5867 5871 5875 5877 5879 5880 5881 5884 5885 5886 5886 5887 5888 5889 5890 5891 5892 5892 5892 5892 5892 5891 5891 5890 5890 5889 5889 5889 5888 5888 5888 5887 5887 5887 5888 5888 5889 5889 5890
5843 5847 5850 5854 5859 5862 5867 5870 5872 5874 5875 5877 5879 5880 5883 5883 5884 5885 5886 5887 5888 5889 5890 5889 5889 5889 5888 5887 5887 5887 5887 5887 5887 5886 5886 5885 5885 5884 5884 5885 5885 5886 5887 5887
5837 5840 5843 5849 5853 5857 5861 5864 5866 5868 5870 5873 5876 5876 5878 5879 5880 5882 5883 5883 5884 5885 5886 5886 5886 5886 5885 5885 5884 5884 5884 5884 5884 5884 5883 5882 5882 5882 5882 5882 5882 5883 5884 5884
5830 5833 5838 5843 5846 5850 5854 5858 5861 5863 5865 5868 5872 5871 5874 5876 5877 5877 5878 5880 5881 5881 5882 5882 5882 5882 5882 5881 5881 5882 5882 5881 5881 5880 5879 5879 5879 5879 5879 5879 5879 5880 5881 5881
5823 5828 5833 5837 5841 5845 5849 5853 5856 5859 5862 5865 5866 5867 5871 5872 5873 5874 5875 5876 5877 5877 5877 5877 5878 5878 5878 5878 5878 5878 5878 5878 5877 5877 5876 5875 5875 5876 5876 5876 5876 5877 5877 5878
5818 5824 5828 5832 5837 5841 5844 5847 5852 5855 5857 5859 5861 5863 5866 5867 5869 5870 5871 5872 5872 5873 5873 5874 5874 5874 5874 5875 5875 5875 5875 5874 5874 5873 5872 5872 5872 5872 5873 5873 5873 5874 5874 5875
5812 5818 5823 5827 5830 5834 5839 5843 5846 5848 5851 5853 5857 5859 5861 5863 5865 5866 5867 5868 5868 5869 5870 5870 5870 5870 5870 5870 5869 5870 5871 5871 5871 5870 5869 5869 5869 5869 5869 5869 5870 5870 5871 5871
5807 5812 5817 5820 5824 5829 5834 5837 5840 5844 5846 5849 5852 5857 5857 5859 5861 5862 5864 5864 5865 5865 5866 5867 5866 5866 5866 5866 5866 5867 5867 5867 5867 5866 5866 5865 5866 5866 5866 5866 5867 5867 5867 5868
5801 5806 5810 5815 5820 5824 5828 5832 5836 5839 5842 5845 5848 5854 5853 5855 5857 5859 5859 5860 5861 5862 5862 5862 5862 5863 5863 5863 5863 5863 5864 5864 5864 5863 5862 5862 5862 5862 5863 5863 5863 5863 5863 5864
5796 5800 5805 5810 5816 5819 5823 5826 5830 5834 5838 5840 5843 5849 5849 5851 5853 5855 5856 5857 5857 5858 5859 5858 5858 5860 5860 5860 5860 5860 5861 5861 5860 5859 5859 5859 5859 5859 5859 5859 5859 5859 5860 5860
5792 5796 5802 5807 5811 5815 5819 5822 5826 5829 5831 5835 5839 5843 5845 5847 5849 5851 5852 5853 5853 5854 5854 5854 5855 5856 5857 5857 5857 5858 5857 5857 5857 5856 5855 5855 5855 5855 5855 5855 5855 5855 5856 5856
5787 5792 5797 5803 5807 5810 5814 5818 5821 5824 5827 5831 5835 5838 5841 5843 5846 5848 5849 5850 5850 5851 5851 5851 5853 5854 5854 5855 5854 5854 5854 5854 5853 5853 5852 5851 5851 5851 5851 5851 5851 5852 5851 5852
5782 5788 5793 5798 5802 5806 5809 5813 5816 5820 5823 5826 5829 5833 5837 5839 5841 5843 5845 5846 5847 5848 5849 5850 5850 5851 5851 5852 5851 5851 5851 5850 5850 5849 5849 5848 5848 5848 5848 5848 5848 5848 5848 5847
5778 5784 5789 5794 5798 5801 5805 5809 5811 5815 5818 5822 5825 5830 5833 5835 5837 5839 5840 5842 5844 5845 5846 5847 5848 5848 5848 5848 5848 5848 5848 5847 5846 5846 5846 5845 5845 5845 5845 5845 5844 5844 5843 5843
5774 5779 5784 5789 5794 5797 5802 5804 5806 5810 5813 5817 5821 5825 5828 5831 5833 5834 5837 5839 5840 5841 5843 5844 5844 5845 5845 5845 5845 5844 5844 5844 5843 5842 5842 5842 5842 5842 5841 5841 5840 5840 5840 5839
5770 5775 5779 5784 5787 5791 5796 5798 5801 5805 5809 5812 5817 5820 5823 5826 5828 5830 5832 5834 5836 5837 5839 5840 5841 5841 5842 5842 5841 5841 5840 5840 5840 5839 5839 5839 5838 5838 5838 5837 5837 5837 5836 5836
5764 5768 5774 5778 5782 5785 5791 5794 5797 5802 5804 5808 5812 5815 5818 5821 5824 5826 5827 5830 5831 5833 5835 5836 5836 5837 5838 5838 5838 5838 5837 5837 5837 5836 5836 5835 5835 5834 5834 5833 5833 5833 5832 5832
5757 5762 5767 5771 5775 5779 5785 5788 5793 5798 5801 5804 5807 5810 5814 5817 5820 5823 5824 5826 5827 5829 5830 5831 5832 5832 5833 5833 5834 5834 5834 5834 5833 5833 5832 5832 5831 5831 5830 5829 5829 5828 5828 5827
5751 5755 5760 5765 5769 5776 5779 5783 5788 5792 5796 5799 5803 5806 5808 5811 5814 5817 5819 5821 5822 5824 5825 5826 5827 5827 5828 5829 5829 5830 5830 5830 5830 5829 5829 5828 5827 5827 5826 5825 5824 5824 5823 5822
5745 5750 5755 5760 5766 5770 5774 5778 5783 5787 5790 5794 5797 5800 5803 5805 5809 5812 5814 5816 5818 5819 5820 5821 5822 5822 5822 5823 5824 5825 5826 5825 5825 5825 5824 5824 5823 5822 5822 5821 5820 5819 5818 5818
5740 5745 5750 5754 5759 5765 5769 5773 5777 5781 5784 5787 5791 5793 5797 5800 5803 5807 5809 5810 5812 5814 5815 5815 5816 5817 5818 5818 5819 5820 5821 5821 5821 5820 5820 5819 5819 5818 5817 5816 5815 5815 5814 5813
5736 5740 5745 5750 5755 5760 5764 5768 5772 5775 5778 5781 5785 5788 5792 5795 5797 5800 5803 5805 5806 5808 5809 5809 5810 5811 5812 5813 5814 5814 5815 5815 5815 5815 5815 5815 5814 5813 5813 5812 5811 5810 5809 5808
5731 5736 5741 5746 5751 5755 5759 5763 5767 5770 5773 5776 5779 5783 5786 5789 5792 5794 5796 5799 5801 5802 5803 5803 5804 5805 5806 5807 5808 5809 5809 5810 5810 5810 5810 5809 5809 5808 5808 5807 5806 5805 5804 5803